www.pogodaiklimat.ru

Погода и климат >> Архив погоды >> Россия >> Якутия >> Сухана


ПОГОДА в Сухане

  • Прогноз погоды в Сухане
  • Монитор погоды в Сухане
  • Климат города

АРХИВ ПОГОДЫ в Сухане

Время (UTC), дата Ветер
(напр.,м/с)
 
Видим.   Явления Облачность Т
(С)
Тd
(С)
f
(%)
Тe
(С)
Тes
(С)
Комфортность P
(гПа)
Po
(гПа)
Тmin
(С)
Tmax
(С)
R
(мм)
R24
(мм)
S
(см)
06 19.04 Ю 2 50 км 5/0
[Ac trans Cs]
+2.5 -12.1 33 0 +5 1007.0 997.5
09 19.04 Ю 1 50 км 9/1 600 м
[Cu hum Ac trans Ci sp]
+4.0 -10.6 34 +4 +5 1005.3 995.8
12 19.04 Ю 5 50 км 9/0
[Ac As Cs]
+3.6 -11.1 33 -1 -1 1005.2 995.7 +5.0
15 19.04 Ю 3 50 км 10/10 1000 м
[Sc]
+1.4 -12.5 35 -2 -2 1004.5 994.9
18 19.04 штиль 0 50 км 10/10 1000 м
[Sc]
-0.6 -11.5 43 -1 -1 1003.7 994.1
21 19.04 Ю 1 50 км 10/8 1000 м
[Sc Ci fib]
-0.6 -9.9 49 -2 -2 1002.3 992.7
00 20.04 Ю 1 50 км 10/10 1000 м
[Sc]
+0.8 -8.7 49 -0 -0 1001.7 992.1 -1.0 34
03 20.04 Ю 5 50 км 10/10 1000 м
[Sc]
+2.6 -4.8 58 -2 -2 1000.5 991.0
06 20.04 Ю 3 50 км 10/10 600 м
[Cb cap]
+2.3 -2.3 72 -2 -2 1000.0 990.5
09 20.04 Ю 2 20 км слабый снег 10/10 1000 м
[Sc]
+1.8 -1.0 82 -1 -1 1000.6 991.0
12 20.04 С 1 20 км слабый снег 10/10 1000 м
[Sc]
+1.0 +0.2 94 -1 -1 1001.1 991.5 +2.6 0.8
15 20.04 С 3 50 км {ливн. осадки, снег} 10/10 600 м
[Cb cap]
-0.2 -1.0 94 -5 -5 1002.3 992.7
18 20.04 В 1 50 км {ливн. осадки, снег} 3/3 600 м
[Cb cap]
-3.1 -4.8 88 -5 -5 1003.5 993.7
21 20.04 СВ 1 500 м туман ?/? -5.8 -6.2 97 -8 -8 1003.9 994.1
00 21.04 штиль 0 50 км {туман} 10/10 1000 м
[Sc]
-4.1 -4.1 100 -5 -5 1004.0 994.2 -5.8 0.5 34
03 21.04 В 2 20 км слабый снег 10/10 1000 м
[Sc]
+1.0 -1.3 85 -2 -2 1003.7 994.1
06 21.04 С 3 50 км {снег} 10/10 600 м
[Cu Sc]
+3.2 -1.7 70 -0 -0 1003.4 993.9
09 21.04 В 1 50 км 10/10 1000 м
[Sc]
+3.1 -1.0 74 +2 +2 1005.2 995.7
12 21.04 СВ 1 50 км 10/10 1000 м
[Sc]
+3.2 -1.9 69 +2 +2 1007.2 993.7 +3.5 0.5
15 21.04 СВ 1 50 км 10/10 1000 м
[Sc]
+2.1 -1.6 76 +1 +1 1008.4 998.9
18 21.04 С 1 20 км слабый снег 10/10 1000 м
[Sc]
-0.6 -1.5 94 -3 -3 1010.4 1000.7
21 21.04 С 2 50 км слабый снег 10/10 1000 м
[Sc]
-3.5 -5.9 83 -8 -8 1012.6 1002.7
00 22.04 С 2 50 км {снег} 10/0
[As op]
-4.3 -7.0 81 -8 -8 1015.0 1005.1 -4.3 0.8 33
03 22.04 С 2 20 км слабый снег 10/8 1000 м
[Sc As op]
-3.3 -6.5 78 -7 -7 1016.6 1006.7
06 22.04 С 2 20 км слабый снег 10/10 1000 м
[Sc]
-2.2 -6.1 75 -6 -6 1018.2 1005.8
09 22.04 С 3 50 км в посл. час снег 10/10 1000 м
[Sc]
-2.0 -5.5 77 -7 -7 1020.4 1010.6
12 22.04 С 2 50 км {снег} 9/9 1000 м
[Sc]
-2.8 -6.6 75 -7 -7 1022.0 1012.2 -1.8 0.9
15 22.04 С 2 50 км 10/10 1000 м
[Sc]
-4.4 -7.8 77 -8 -8 1023.4 1013.4
18 22.04 С 2 50 км 10/10 1000 м
[Sc]
-5.5 -8.9 77 -10 -10 1024.3 1014.3
21 22.04 С 2 50 км 10/10 1000 м
[Sc]
-6.4 -9.2 80 -11 -11 1024.9 1014.9
00 23.04 С 2 20 км слабый снег 10/10 1000 м
[Sc]
-6.1 -8.0 86 -10 -10 1025.2 1015.2 -6.4 0.1 33
03 23.04 С 2 50 км {снег} 10/10 1000 м
[Sc]
-3.3 -7.6 72 -7 -7 1024.3 1014.3
06 23.04 штиль 0 50 км 10/10 1000 м
[Sc]
-0.6 -2.1 90 -2 -2 1023.5 1013.7
09 23.04 С 1 50 км 8/8 1000 м
[Sc]
+1.2 -2.0 79 -1 0 1022.9 1013.1
12 23.04 З 2 4000 м ливневой снег 10/10 600 м
[Cb cap]
-0.9 -2.1 92 -5 -5 1024.0 1014.2 +2.4 0.8
15 23.04 З 1 50 км {ливн. осадки} 3/3 1000 м
[Sc diur, vesp]
-4.3 -4.5 99 -7 -7 1024.1 1014.1
18 23.04 Ю 2 50 км {ливн. осадки} 8/8 1000 м
[Sc]
-4.3 -5.2 93 -9 -9 1024.2 1014.2
21 23.04 Ю 2 50 км 1/1 600 м
[Cu hum]
-5.5 -7.6 85 -10 -10 1023.7 1013.7
00 24.04 Ю 4 50 км 4/0
[Ac trans Ci sp]
-1.8 -7.1 67 -7 -5 1021.5 1011.7 -5.5 0.2 34
03 24.04 Ю 6
{10}
50 км 8/0
[Ac As Ci sp]
+3.0 -7.1 47 -2 -0 1018.1 1008.5
06 24.04 Ю 5
{12}
20 км слабый ливневой снег {метель} 10/10 600 м
[Cb cap]
+1.2 -2.0 79 -4 -4 1017.9 1008.2
09 24.04 Ю 4 20 км слабый ливневой снег {метель} 9/9 600 м
[Cb cap]
+1.7 -1.4 80 -3 -3 1017.9 1008.2
12 24.04 З 3 50 км {ливн. осадки, метель} 9/5 600 м
[Cb cap Ci fib]
-0.1 -3.8 76 -5 -5 1019.1 1009.4 -3.4 1
15 24.04 З 1 50 км 10/8 600 м
[Sc As trans]
-1.8 -4.2 84 -4 -4 1021.3 1011.5
18 24.04 З 1 50 км 10/10 600 м
[Sc]
-3.9 -7.2 78 -6 -6 1023.0 1013.0
21 24.04 СЗ 2 50 км ясно -8.3 -9.3 92 -13 -12 1024.5 1014.3
00 25.04 Ю 1 50 км ясно -3.7 -8.1 71 -6 -2 1025.9 1014.9 -8.5 34
03 25.04 Ю 2 50 км 3/0
[Ci fib]
+1.7 -0.2 87 -2 +5 1023.3 1013.5
06 25.04 ЮВ 1 50 км 3/0
[Ci fib]
+5.1 -5.0 48 +5 +12 1021.0 1011.4
09 25.04 Ю 1 50 км 3/0
[Ci fib]
+5.2 -8.0 38 +5 +8 1017.8 1008.2
12 25.04 Ю 3 50 км 10/0
[Ac As Ci fib]
+4.4 -8.9 37 +2 +2 1014.9 1005.3 +5.7
15 25.04 Ю 4
{10}
50 км 10/0
[Ac As]
+3.7 -9.7 37 0 0 1011.9 1002.3
18 25.04 ЮВ 4
{10}
50 км 10/0
[Ac As]
+2.7 -7.1 48 -1 -1 1008.2 998.7
21 25.04 штиль 0
{10}
10 км слабый снег 10/3 1000 м
[Sc Ac As]
-0.4 -2.5 86 -2 -1 1005.3 995.7
00 26.04 Ю 2 4000 м слабый ливневой снег 10/8 600 м
[Cb cap Ac As]
+0.8 -0.9 88 -3 -3 1004.7 995.1 -2.5 1 33
03 26.04 Ю 1 50 км в посл. час ливневой снег 10/10 600 м
[Cb cap]
+2.0 -0.8 82 0 0 1004.1 994.6

 

Местоположение метеостанции Сухана (Якутия, Россия): широта 68.62 долгота 118.30 высота над уровнем моря 77 м.

В архиве по умолчанию представлена погода в Сухане за последнюю неделю. Архивные данные за месяц целиком и за предыдущие месяцы, начиная с января 2011 года, Вы можете получить, выбрав интересующий диапазон дат из раскрывающегося списка и нажав кнопку "Ввод!".

Внимание! Время в таблицах - всемирное. Для получения местного времени необходимо прибавить поправку, которая в Сухане равна 9 ч.

Смотрите также архив погоды в соседних городах и на ближайших метеорологических станциях:

Погода в Джарджане (Якутия, Россия) (231 км)
Погода в Оленеке (Якутия, Россия) (240 км)
Погода в Джалинде (Якутия, Россия) (241 км)
Погода в Эйке (Якутия, Россия) (291 км)
Погода в Жиганске (Якутия, Россия) (294 км)
Погода в Шелагонцах (Якутия, Россия) (316 км)
Погода в Полярном (Якутия, Россия) (326 км)
Погода в Саскылахе (Якутия, Россия) (406 км)
Погода в Тюмяти (Якутия, Россия) (415 км)
Погода в Кюсюре (Якутия, Россия) (419 км)

Пояснения к столбцам:

Ветер - указаны скорость ветра в м/с - средняя за 10 мин, порывы в срок и между сроками (в фигурных скобках) и направление, откуда дует ветер: С - северный, СВ - северо-восточный, В - восточный, ЮВ - юго-восточный, Ю - южный, ЮЗ - юго-западный, З - западный, СЗ - северо-западный.
Видимость - горизонтальная дальность видимости в метрах или километрах. При видимости от 1 до 10 км при отсутствии осадков обычно наблюдается дымка, при ухудшении видимости до 1 км и менее - туман. В сухую погоду видимость может ухудшаться дымом, пылью или мглою.
Явления - указаны атмосферные явления, наблюдавшиеся в срок или в последний час перед сроком; фигурными скобками обозначены явления, наблюдавшиеся между сроками (за 1-3 часа до срока); квадратными скобками обозначены град или гололедные отложения с указанием их диаметра в мм.
Облачность - указаны через наклонную черту общая и нижняя облачность в баллах и высота нижней границы облаков в метрах; квадратными скобками обозначены формы облаков: Ci - перистые, Cs - перисто-слоистые, Cc - перисто-кучевые, Ac - высококучевые, As - высокослоистые, Sc - слоисто-кучевые, Ns - слоисто-дождевые, Cu - кучевые, Cb - кучево-дождевые. Подробнее классификацию облаков см. в Атласе облаков (PDF).
T - Температура воздуха - температура, измеренная на высоте 2 м над землей.
Td - Температура точки росы - температура, при понижении до которой содержащийся в воздухе водяной пар достигнет насыщения.
f - Относительная влажность воздуха - влажноcть воздуха, измеренная на высоте 2 м над землей.
Te - Эффективная температура - температура, которую ощущает одетый по сезону человек в тени. Характеристика душности погоды. При расчете учитывается влияние влажности воздуха и скорости ветра на теплоощущения человека.
Tes - Эффективная температура на солнце - температура, которую ощущает человек, с поправкой на солнечный нагрев. Характеристика знойности погоды. Зависит от высоты солнца над горизонтом, облачности и скорости ветра. Ночью, в пасмурную погоду, а также при ветре 12 м/с и более поправка равна нулю.
P - Атмосферное давление - приведенное к уровню моря атмосферное давление.
Po - Атмосферное давление - измеренное на уровне метеостанции атмосферное давление.
Tmin - Минимальная температура - минимум температуры воздуха на высоте 2 м над землей.
Tmax - Максимальная температура - максимум температуры воздуха на высоте 2 м над землей.
R - Количество осадков - Количество выпавших осадков за период времени, мм. При наведении курсора мыши на число - период времени, за который выпало указанное количество осадков.
R24 - Количество осадков - Количество выпавших осадков за 24 часа, мм.
S - Снежный покров - Высота снежного покрова, см. При наведении курсора мыши на число - состояние снежного покрова и степень покрытия местности в баллах.